| time (UTC) | temp F | wind direction | speed MPH | gust MPH | rain 1hr in | rain 24hr in | rain mn in | humidity % | barometer mb |
| 20260505004017 | 64 | 225 | 1.0 | 3.0 | 0.00 | 0.00 | 0.00 | 57 | 1010.2 |
| 20260505003017 | 65 | 248 | 1.0 | 6.0 | 0.00 | 0.00 | 0.00 | 56 | 1010.2 |
| 20260505002017 | 65 | 248 | 1.0 | 3.0 | 0.00 | 0.00 | 0.00 | 55 | 1010.1 |
| 20260505001016 | 66 | 0.0 | 3.0 | 0.00 | 0.00 | 0.00 | 54 | 1010.1 | |
| 20260505000016 | 67 | 0.0 | 1.0 | 0.00 | 0.00 | 0.00 | 52 | 1010.1 | |
| 20260504235018 | 68 | 0.0 | 2.0 | 0.00 | 0.00 | 0.00 | 50 | 1010.0 | |
| 20260504234017 | 69 | 225 | 1.0 | 3.0 | 0.00 | 0.00 | 0.00 | 49 | 1009.9 |
| 20260504233037 | 70 | 0.0 | 3.0 | 0.00 | 0.00 | 0.00 | 47 | 1010.0 | |
| 20260504232017 | 70 | 248 | 2.0 | 4.0 | 0.00 | 0.00 | 0.00 | 46 | 1010.1 |
| 20260504231016 | 71 | 180 | 1.0 | 4.0 | 0.00 | 0.00 | 0.00 | 45 | 1010.1 |
| 20260504230016 | 72 | 270 | 1.0 | 5.0 | 0.00 | 0.00 | 0.00 | 44 | 1010.1 |
| 20260504225037 | 73 | 225 | 1.0 | 6.0 | 0.00 | 0.00 | 0.00 | 44 | 1010.0 |
| 20260504224037 | 73 | 270 | 1.0 | 4.0 | 0.00 | 0.00 | 0.00 | 43 | 1010.0 |
| 20260504223016 | 73 | 270 | 3.0 | 5.0 | 0.00 | 0.00 | 0.00 | 42 | 1010.0 |
| 20260504222016 | 73 | 293 | 4.0 | 10.0 | 0.00 | 0.00 | 0.00 | 42 | 1010.0 |
| 20260504221018 | 73 | 248 | 3.0 | 5.0 | 0.00 | 0.00 | 0.00 | 42 | 1010.1 |
| 20260504220016 | 73 | 270 | 5.0 | 10.0 | 0.00 | 0.00 | 0.00 | 41 | 1010.1 |
| 20260504215037 | 73 | 248 | 3.0 | 11.0 | 0.00 | 0.00 | 0.00 | 41 | 1010.2 |
| 20260504214016 | 73 | 315 | 7.0 | 13.0 | 0.00 | 0.00 | 0.00 | 39 | 1010.2 |
| 20260504213016 | 73 | 315 | 7.0 | 15.0 | 0.00 | 0.00 | 0.00 | 40 | 1010.1 |
| 20260504212016 | 73 | 270 | 7.0 | 20.0 | 0.00 | 0.00 | 0.00 | 41 | 1010.3 |
| 20260504211016 | 73 | 315 | 6.0 | 13.0 | 0.00 | 0.00 | 0.00 | 41 | 1010.3 |
| 20260504210017 | 74 | 293 | 7.0 | 15.0 | 0.00 | 0.00 | 0.00 | 40 | 1010.3 |
| 20260504205016 | 74 | 270 | 8.0 | 15.0 | 0.00 | 0.00 | 0.00 | 39 | 1010.2 |
| 20260504204016 | 74 | 270 | 7.0 | 13.0 | 0.00 | 0.00 | 0.00 | 39 | 1010.2 |
| 20260504203017 | 74 | 315 | 6.0 | 18.0 | 0.00 | 0.00 | 0.00 | 40 | 1010.1 |
| 20260504202016 | 74 | 315 | 7.0 | 14.0 | 0.00 | 0.00 | 0.00 | 39 | 1010.2 |
| 20260504201038 | 74 | 315 | 9.0 | 18.0 | 0.00 | 0.00 | 0.00 | 39 | 1010.3 |
| 20260504200016 | 74 | 270 | 5.0 | 12.0 | 0.00 | 0.00 | 0.00 | 40 | 1010.5 |
| 20260504195018 | 74 | 270 | 6.0 | 15.0 | 0.00 | 0.00 | 0.00 | 40 | 1010.5 |
| 20260504194016 | 74 | 293 | 6.0 | 17.0 | 0.00 | 0.00 | 0.00 | 39 | 1010.9 |
| 20260504193016 | 73 | 293 | 6.0 | 14.0 | 0.00 | 0.00 | 0.00 | 41 | 1011.1 |
| 20260504192016 | 73 | 270 | 6.0 | 14.0 | 0.00 | 0.00 | 0.00 | 41 | 1011.1 |
| 20260504191037 | 73 | 315 | 6.0 | 13.0 | 0.00 | 0.00 | 0.00 | 40 | 1011.2 |
| 20260504190016 | 73 | 315 | 6.0 | 14.0 | 0.00 | 0.00 | 0.00 | 39 | 1011.2 |
| 20260504185017 | 73 | 270 | 6.0 | 14.0 | 0.00 | 0.00 | 0.00 | 39 | 1011.5 |
| 20260504184017 | 73 | 270 | 5.0 | 12.0 | 0.00 | 0.00 | 0.00 | 40 | 1011.4 |
| 20260504183016 | 73 | 270 | 4.0 | 12.0 | 0.00 | 0.00 | 0.00 | 41 | 1011.6 |
| 20260504182016 | 72 | 315 | 5.0 | 12.0 | 0.00 | 0.00 | 0.00 | 42 | 1011.8 |
| 20260504181017 | 72 | 315 | 5.0 | 12.0 | 0.00 | 0.00 | 0.00 | 39 | 1011.9 |
| 20260504180016 | 72 | 293 | 5.0 | 12.0 | 0.00 | 0.00 | 0.00 | 42 | 1011.9 |
| 20260504175017 | 72 | 315 | 5.0 | 13.0 | 0.00 | 0.00 | 0.00 | 39 | 1012.1 |
| 20260504174057 | 71 | 315 | 8.0 | 15.0 | 0.00 | 0.00 | 0.00 | 41 | 1012.3 |
| 20260504173016 | 71 | 293 | 5.0 | 14.0 | 0.00 | 0.00 | 0.00 | 43 | 1012.4 |
| 20260504172016 | 71 | 293 | 6.0 | 13.0 | 0.00 | 0.00 | 0.00 | 44 | 1012.6 |
| 20260504171016 | 71 | 293 | 4.0 | 10.0 | 0.00 | 0.00 | 0.00 | 44 | 1012.8 |
| 20260504151016 | 67 | 315 | 4.0 | 10.0 | 0.00 | 0.00 | 0.00 | 54 | 1013.8 |
| 20260504141015 | 64 | 315 | 6.0 | 14.0 | 0.00 | 0.00 | 0.00 | 58 | 1013.9 |
| 20260504081016 | 47 | 270 | 1.0 | 4.0 | 0.00 | 0.00 | 0.00 | 76 | 1015.1 |
| 20260504050017 | 47 | 293 | 1.0 | 3.0 | 0.00 | 0.00 | 0.00 | 70 | 1014.8 |
| 20260504045016 | 46 | 248 | 1.0 | 4.0 | 0.00 | 0.00 | 0.00 | 70 | 1014.8 |
| 20260504044016 | 46 | 270 | 1.0 | 4.0 | 0.00 | 0.00 | 0.00 | 70 | 1014.7 |
| 20260504043017 | 46 | 0.0 | 2.0 | 0.00 | 0.00 | 0.00 | 70 | 1014.5 | |
| 20260504042016 | 46 | 270 | 1.0 | 4.0 | 0.00 | 0.00 | 0.00 | 71 | 1014.6 |
| 20260504041017 | 45 | 270 | 1.0 | 2.0 | 0.00 | 0.00 | 0.00 | 73 | 1014.5 |
| 20260504040016 | 45 | 0.0 | 1.0 | 0.00 | 0.00 | 0.00 | 73 | 1014.3 | |
| 20260504035017 | 45 | 270 | 1.0 | 4.0 | 0.00 | 0.00 | 0.00 | 73 | 1014.2 |
| 20260504034017 | 44 | 248 | 1.0 | 3.0 | 0.00 | 0.00 | 0.00 | 74 | 1014.2 |
| 20260504033017 | 44 | 0.0 | 2.0 | 0.00 | 0.00 | 0.00 | 75 | 1014.3 | |
| 20260504032017 | 44 | 0.0 | 1.0 | 0.00 | 0.00 | 0.00 | 74 | 1014.2 | |
| 20260504031058 | 45 | 0.0 | 2.0 | 0.00 | 0.00 | 0.00 | 74 | 1014.1 | |
| 20260504030037 | 45 | 0.0 | 0.0 | 0.00 | 0.00 | 0.00 | 75 | 1014.2 | |
| 20260504025018 | 45 | 0.0 | 1.0 | 0.00 | 0.00 | 0.00 | 74 | 1014.2 | |
| 20260504024017 | 45 | 0.0 | 1.0 | 0.00 | 0.00 | 0.00 | 72 | 1014.1 | |
| 20260504023037 | 45 | 0.0 | 4.0 | 0.00 | 0.00 | 0.00 | 73 | 1014.3 | |
| 20260504022038 | 45 | 0.0 | 1.0 | 0.00 | 0.00 | 0.00 | 73 | 1014.3 | |
| 20260504021016 | 45 | 0.0 | 2.0 | 0.00 | 0.00 | 0.00 | 72 | 1014.3 | |
| 20260504020017 | 46 | 0.0 | 0.0 | 0.00 | 0.00 | 0.00 | 70 | 1014.2 | |
| 20260504015017 | 47 | 0.0 | 0.0 | 0.00 | 0.00 | 0.00 | 68 | 1014.1 | |
| 20260504014016 | 47 | 0.0 | 0.0 | 0.00 | 0.00 | 0.00 | 67 | 1014.1 | |
| 20260504013017 | 48 | 0.0 | 0.0 | 0.00 | 0.00 | 0.00 | 65 | 1014.0 | |
| 20260504012038 | 49 | 0.0 | 0.0 | 0.00 | 0.00 | 0.00 | 64 | 1014.0 | |
| 20260504011017 | 50 | 0.0 | 0.0 | 0.00 | 0.00 | 0.00 | 62 | 1013.8 | |
| 20260504010017 | 51 | 0.0 | 0.0 | 0.00 | 0.00 | 0.00 | 59 | 1013.6 | |
| 20260504005017 | 52 | 0.0 | 1.0 | 0.00 | 0.00 | 0.00 | 56 | 1013.5 |